Location: Lewisville
(33.0462°N, 96.9942°W)
Time: 11:09:26
(UTC-06:00)

Envisat - Pass Details

Date: 14 February 2021
Orbit: 764 x 766 km, 98.2° (Epoch: 02 December)

Event Time Altitude Azimuth Distance (km) Brightness Sun altitude
Rises 06:12:12 0° 10° (N) 3,237 6.3 -13.2°
Reaches altitude 10° 06:14:31 10° 9° (N) 2,307 5.5 -12.7°
Maximum altitude 06:19:36 77° 284° (WNW) 788 2.9 -11.6°
Drops below altitude 10° 06:24:38 10° 199° (SSW) 2,292 5.4 -10.6°
Sets 06:26:56 0° 198° (SSW) 3,214 6.1 -10.1°
